Weather History for Caldwell, NJ

Change the Weather History Date:

Monday, January 6, 2014

  Actual Average Record
Temperature  
Mean Temperature 39 °F -  
Max Temperature 57 °F 36 °F 70 °F (2007)
Min Temperature 15 °F 19 °F 3 °F (1972)
Degree Days  
Heating Degree Days 26    
Moisture  
Dew Point 36 °F    
Average Humidity 81    
Maximum Humidity 100    
Minimum Humidity 37    
Precipitation  
Precipitation 0.28 in - - ()
Sea Level Pressure  
Sea Level Pressure 29.58 in    
Wind  
Wind Speed 7 mph (West)    
Max Wind Speed 26 mph    
Max Gust Speed 40 mph    
Visibility 5 miles    
Events Fog , Rain    
Averages and records for this station are not official NWS values.
T = Trace of Precipitation, MM = Missing Value Source: NWS Daily Summary

Daily Weather History Graph

Daily Weather History Graph

Search for Another Location

Airport:

Trip Planner

Search our weather history database for the weather conditions in past years. The results will help you decide how hot, cold, wet, or windy it might be!

Date:

Astronomy

Jan. 06, 2014 Rise Set
Actual Time 7:21 AM EST 4:44 PM EST
Civil Twilight 6:51 AM EST 5:15 PM EST
Nautical Twilight 6:16 AM EST 5:49 PM EST
Astronomical Twilight 5:43 AM EST 6:22 PM EST
Moon 10:33 AM EST (1/6) 11:18 PM EST (1/6)
Length of Visible Light 10h 24m
Length of Day
9h 22m
Waxing Crescent, 34% of the Moon is Illuminated
Jan 6
Waxing Crescent
Jan 7
First Quarter
Jan 15
Full
Jan 24
Last Quarter
Jan 30
New

Hourly Weather History & Observations

Time (EST) Temp. Windchill Dew Point Humidity Pressure Visibility Wind Dir Wind Speed Gust Speed Precip Events Conditions
12:08 AM 35.6 °F 32.8 °F 35.6 °F 100% 29.74 in 0.5 mi ENE 3.5 mph - 0.00 in Fog , Rain Light Rain
12:37 AM 37.4 °F 33.8 °F 37.4 °F 100% 29.72 in 0.5 mi West 4.6 mph - N/A Fog , Rain Light Rain
12:44 AM 37.4 °F 32.1 °F 37.4 °F 100% 29.71 in 0.2 mi WNW 6.9 mph - N/A Fog , Rain Rain
12:51 AM 39.2 °F 35.9 °F 37.4 °F 93% 29.71 in 0.5 mi WNW 4.6 mph - N/A Fog , Rain Light Rain
12:53 AM 39.0 °F 36.8 °F 37.9 °F 96% 29.73 in 0.8 mi NW 3.5 mph - N/A Rain Light Rain
1:07 AM 37.4 °F 34.9 °F 35.6 °F 93% 29.70 in 0.2 mi NW 3.5 mph - N/A Fog , Rain Light Rain
1:17 AM 37.4 °F - 35.6 °F 93% 29.69 in 0.5 mi Calm Calm - N/A Fog , Rain Light Rain
1:53 AM 36.0 °F 32.1 °F 34.0 °F 93% 29.69 in 0.8 mi NW 4.6 mph - N/A Rain Light Rain
2:21 AM 35.6 °F - 35.6 °F 100% 29.65 in 0.5 mi Calm Calm - N/A Fog Fog
2:53 AM 35.1 °F - 35.1 °F 100% 29.65 in 0.2 mi Calm Calm - N/A Fog Fog
3:35 AM 35.6 °F - 33.8 °F 93% 29.58 in 0.2 mi Calm Calm - N/A Fog Fog
3:53 AM 41.0 °F 39.0 °F 39.0 °F 93% 29.60 in 0.2 mi Variable 3.5 mph - N/A Fog Fog
4:12 AM 51.8 °F - 51.8 °F 100% 29.56 in 1.0 mi SSW 4.6 mph - N/A   Overcast
4:44 AM 53.6 °F - 51.8 °F 94% 29.53 in 3.0 mi South 10.4 mph - N/A   Overcast
4:53 AM 54.0 °F - 52.0 °F 93% 29.55 in 6.0 mi South 8.1 mph - N/A   Overcast
5:53 AM 55.9 °F - 54.0 °F 93% 29.50 in 10.0 mi Variable 6.9 mph - N/A   Overcast
6:53 AM 55.9 °F - 54.0 °F 93% 29.45 in 10.0 mi South 13.8 mph 18.4 mph N/A   Overcast
7:35 AM 55.4 °F - 53.6 °F 94% 29.41 in 10.0 mi SSW 12.7 mph 25.3 mph N/A   Overcast
7:53 AM 57.0 °F - 54.0 °F 89% 29.42 in 6.0 mi SSW 10.4 mph 23.0 mph N/A Rain Light Rain
8:00 AM 57.2 °F - 53.6 °F 88% 29.40 in 7.0 mi SSW 13.8 mph 25.3 mph 0.01 in Rain Light Rain
8:11 AM 57.2 °F - 53.6 °F 88% 29.39 in 4.0 mi SSW 15.0 mph 29.9 mph 0.02 in Rain Light Rain
8:27 AM 53.6 °F - 50.0 °F 88% 29.45 in 1.2 mi WNW 25.3 mph 40.3 mph 0.10 in Rain Light Rain
8:38 AM 50.0 °F - 44.6 °F 82% 29.46 in 3.0 mi West 10.4 mph 32.2 mph 0.12 in Rain Light Rain
8:53 AM 48.9 °F - 44.1 °F 83% 29.49 in 3.0 mi West 9.2 mph 18.4 mph 0.15 in Rain Rain
9:38 AM 46.4 °F 45.2 °F 42.8 °F 87% 29.49 in 2.0 mi Variable 3.5 mph - 0.05 in Rain Rain
9:45 AM 46.4 °F 44.3 °F 42.8 °F 87% 29.50 in 1.5 mi Variable 4.6 mph - 0.08 in Rain Rain
9:51 AM 44.6 °F 42.2 °F 42.8 °F 93% 29.50 in 3.0 mi Variable 4.6 mph - 0.09 in Rain Light Rain
9:53 AM 45.0 °F 42.6 °F 42.1 °F 90% 29.51 in 4.0 mi Variable 4.6 mph - 0.09 in Rain Light Rain
10:53 AM 46.0 °F - 39.0 °F 76% 29.48 in 10.0 mi Calm Calm - 0.01 in   Mostly Cloudy
11:53 AM 43.0 °F 36.0 °F 35.1 °F 74% 29.50 in 10.0 mi West 13.8 mph 21.9 mph 0.01 in Rain Light Rain
12:53 PM 39.0 °F 34.0 °F 34.0 °F 82% 29.50 in 10.0 mi WSW 6.9 mph - 0.02 in Rain Light Rain
1:53 PM 39.0 °F 34.8 °F 30.0 °F 70% 29.50 in 10.0 mi West 5.8 mph - 0.00 in   Overcast
2:53 PM 39.9 °F 32.9 °F 27.0 °F 60% 29.52 in 10.0 mi WNW 11.5 mph 16.1 mph N/A   Overcast
3:53 PM 37.9 °F 30.9 °F 23.0 °F 55% 29.54 in 10.0 mi WNW 10.4 mph 21.9 mph N/A   Overcast
4:53 PM 36.0 °F 27.5 °F 19.9 °F 52% 29.57 in 10.0 mi NW 12.7 mph - N/A   Overcast
5:53 PM 34.0 °F 28.0 °F 17.1 °F 50% 29.58 in 10.0 mi NW 6.9 mph - N/A   Overcast
6:53 PM 33.1 °F 23.4 °F 12.9 °F 43% 29.63 in 10.0 mi NW 13.8 mph 23.0 mph N/A   Overcast
7:53 PM 30.9 °F 22.8 °F 19.0 °F 61% 29.65 in 10.0 mi WNW 9.2 mph 21.9 mph 0.00 in   Overcast
8:53 PM 28.9 °F 21.1 °F 12.0 °F 49% 29.68 in 10.0 mi West 8.1 mph 20.7 mph N/A   Scattered Clouds
9:53 PM 26.1 °F 15.6 °F 8.1 °F 47% 29.71 in 10.0 mi West 11.5 mph 32.2 mph N/A   Partly Cloudy
10:53 PM 21.0 °F 5.4 °F 3.0 °F 46% 29.74 in 10.0 mi WNW 20.7 mph 34.5 mph N/A   Clear
11:53 PM 15.1 °F -4.4 °F -7.1 °F 37% 29.79 in 10.0 mi WNW 26.5 mph 40.3 mph N/A   Clear